THOR ABLESTAR DEB, 405

Orbit data source: Space-Track

THOR ABLESTAR DEB, 405 is space debris in LEO originally from a launch on Thu, 29 Jun 1961 UTC launched from the Air Force Eastern Test Range (AFETR). Debris objects in space refer to the collection of defunct objects orbiting the Earth. Examples of debris include non-operational satellites, rocket bodies, and fragments generated from explosions, collisions, or faulty payload assembly.

Loading next visibility...
Identifier
405, 1961-015EE
Orbit
LEO
Last TLE update
9 hours ago
Origin
Manufacturer
Unknown
Mission
Spacecraft
Bus & Motor
Unknown
Mass
Unknown
Launch date (UTC)
1961-06-29 (64 years ago)
Launch vehicle
Unknown
Launch site
Air Force Eastern Test Range (AFETR)
Object type
Payload
Rocket body
Debris
Shape & HBR
Unknown
Radar Cross Section
Small (<0.1 m²)

Expand to show TLE details & history

TLE from 9 hours ago
0 THOR ABLESTAR DEB
1   405U 61015EE  25200.23807644  .00000079  00000-0  17657-3 0  9990
2   405  66.8906 220.1738 0079780  45.3841  35.8466 13.66565019187117
Epoch: 2025-07-19T05:42Z
TLE epoch observation values (Epoch: 2025-07-19T05:42:49.804Z)
Latitude
65.65434°
Longitude
-93.06252°
Altitude
974.809 km
Speed
7.395 km/s
True Right ascension
19h 19m 41s
True Declination
65° 31' 43"
Sunlit
Object was in daylight at epoch
Visualization orbit readout
Latitude
3.94948°
Longitude
14.61007°
Altitude
1,051.586 km
Speed
7.308 km/s
Apparent Right ascension
00h 30m 03s
Apparent Declination
-47° 52' 39"
Sunlit
Object is in daylight
Visualization observer readout
Local Sidereal Time
03:47:21
Azimuth
210.918° SW
Elevation
-8.086°
Doppler factor
1
Orbital elements
Apogee altitude
1,069.276 km
Perigee altitude
951.386 km
Semi-major axis
7,388.468 km
Eccentricity
0.00798
Inclination
66.8906°
RAAN
220.1738°
Arg. of periapsis
45.3841°
True anomaly
36.38633°
Mean anomaly
35.8466°
Eccentric anomaly
36.11603°
Mean motion
3.41752 °/min
Orbital period
105.34 mins
BSTAR
0.00017657
Loading maneuver chart data...
Loading SW <> Apogee altitude chart data...
|